QPF
0.00 0.00 0.00 0.00 0.00 0.00 0.00 0.01 0.01 0.01 0.00 0.01 0.00 0.00 0.01 0.02 0.03 0.02 0.02 0.02 0.01 0.01 0.01 0.01 0.01 0.01 0.01 0.01 0.02 0.02 0.03 0.02 0.02 0.01 0.01 0.01 0.01 0.00 0.01 0.02 0.02 0.03 0.03 0.03
0.00 0.00 0.00 0.00 0.00 0.00 0.00 0.01 0.00 0.00 0.00 0.00 0.00 0.00 0.01 0.01 0.02 0.02 0.02 0.02 0.02 0.01 0.01 0.01 0.02 0.02 0.01 0.02 0.02 0.02 0.03 0.03 0.02 0.01 0.01 0.00 0.00 0.00 0.01 0.02 0.02 0.02 0.02 0.03
0.00 0.00 0.00 0.00 0.00 0.00 0.00 0.00 0.00 0.00 0.00 0.01 0.01 0.01 0.01 0.01 0.02 0.01 0.01 0.01 0.01 0.01 0.01 0.02 0.02 0.03 0.02 0.02 0.02 0.03 0.04 0.04 0.03 0.02 0.01 0.01 0.01 0.01 0.01 0.02 0.02 0.03 0.03 0.03
0.00 0.00 0.00 0.00 0.00 0.00 0.00 0.00 0.00 0.00 0.00 0.00 0.00 0.01 0.00 0.01 0.01 0.01 0.01 0.01 0.01 0.01 0.01 0.01 0.02 0.02 0.03 0.02 0.02 0.03 0.03 0.04 0.03 0.03 0.03 0.02 0.02 0.02 0.01 0.01 0.01 0.03 0.04 0.04
0.00 0.00 0.00 0.00 0.00 0.00 0.00 0.01 0.01 0.01 0.01 0.01 0.00 0.01 0.01 0.01 0.01 0.01 0.01 0.01 0.01 0.01 0.01 0.01 0.01 0.02 0.02 0.03 0.03 0.02 0.02 0.03 0.03 0.03 0.03 0.04 0.03 0.02 0.02 0.02 0.01 0.02 0.02 0.02
0.00 0.00 0.00 0.00 0.00 0.00 0.00 0.01 0.01 0.00 0.00 0.01 0.00 0.01 0.01 0.01 0.01 0.01 0.02 0.01 0.01 0.01 0.01 0.02 0.02 0.02 0.03 0.03 0.03 0.02 0.02 0.03 0.03 0.03 0.03 0.03 0.02 0.03 0.03 0.03 0.03 0.03 0.02 0.02
0.00 0.00 0.00 0.00 0.00 0.00 0.00 0.00 0.01 0.01 0.00 0.00 0.00 0.01 0.02 0.01 0.01 0.01 0.02 0.02 0.01 0.01 0.01 0.02 0.03 0.03 0.02 0.03 0.03 0.03 0.02 0.02 0.03 0.04 0.03 0.03 0.03 0.04 0.04 0.05 0.04 0.04 0.04 0.04
0.00 0.00 0.00 0.00 0.00 0.00 0.00 0.00 0.00 0.00 0.01 0.01 0.01 0.01 0.01 0.01 0.00 0.00 0.01 0.01 0.01 0.00 0.00 0.01 0.02 0.03 0.04 0.04 0.03 0.03 0.02 0.02 0.02 0.03 0.02 0.02 0.02 0.03 0.04 0.05 0.05 0.05 0.05 0.06
0.00 0.00 0.00 0.00 0.00 0.00 0.00 0.00 0.00 0.00 0.00 0.01 0.01 0.01 0.00 0.00 0.00 0.00 0.00 0.00 0.00 0.00 0.00 0.01 0.01 0.02 0.05 0.04 0.04 0.03 0.02 0.03 0.03 0.03 0.02 0.01 0.01 0.01 0.02 0.03 0.04 0.04 0.05 0.06
0.00 0.00 0.00 0.00 0.00 0.00 0.00 0.00 0.00 0.00 0.00 0.00 0.00 0.00 0.00 0.00 0.00 0.00 0.00 0.00 0.00 0.00 0.01 0.01 0.01 0.01 0.03 0.04 0.05 0.05 0.05 0.05 0.05 0.04 0.03 0.02 0.02 0.02 0.02 0.02 0.02 0.03 0.04 0.05
0.00 0.00 0.00 0.00 0.00 0.00 0.00 0.00 0.00 0.00 0.00 0.00 0.00 0.00 0.00 0.00 0.00 0.00 0.00 0.00 0.00 0.00 0.00 0.01 0.01 0.01 0.02 0.03 0.05 0.05 0.05 0.05 0.05 0.04 0.04 0.03 0.02 0.02 0.02 0.04 0.03 0.03 0.03 0.04
0.01 0.00 0.00 0.00 0.00 0.00 0.00 0.00 0.00 0.00 0.00 0.00 0.00 0.00 0.00 0.00 0.00 0.00 0.00 0.00 0.01 0.01 0.01 0.01 0.01 0.02 0.03 0.03 0.04 0.05 0.04 0.04 0.03 0.04 0.04 0.03 0.03 0.03 0.02 0.02 0.03 0.03 0.03 0.03
0.01 0.01 0.01 0.00 0.00 0.00 0.00 0.00 0.00 0.00 0.00 0.00 0.00 0.00 0.00 0.00 0.00 0.00 0.00 0.00 0.01 0.01 0.01 0.01 0.01 0.02 0.03 0.03 0.03 0.03 0.04 0.04 0.04 0.04 0.03 0.03 0.03 0.03 0.02 0.03 0.02 0.02 0.03 0.03
0.01 0.01 0.00 0.00 0.00 0.00 0.00 0.00 0.00 0.00 0.00 0.00 0.00 0.00 0.00 0.00 0.00 0.00 0.00 0.00 0.00 0.01 0.01 0.01 0.01 0.02 0.03 0.03 0.02 0.02 0.04 0.05 0.05 0.04 0.03 0.03 0.02 0.02 0.02 0.03 0.03 0.02 0.03 0.03
0.00 0.00 0.00 0.00 0.00 0.00 0.00 0.00 0.00 0.00 0.00 0.00 0.00 0.00 0.00 0.00 0.00 0.00 0.00 0.00 0.00 0.01 0.01 0.01 0.01 0.02 0.02 0.02 0.02 0.02 0.03 0.04 0.05 0.05 0.04 0.03 0.03 0.03 0.03 0.03 0.03 0.02 0.03 0.03
0.00 0.00 0.00 0.00 0.00 0.00 0.00 0.00 0.00 0.00 0.00 0.00 0.00 0.00 0.00 0.00 0.00 0.00 0.00 0.00 0.00 0.00 0.01 0.00 0.01 0.02 0.03 0.02 0.02 0.02 0.03 0.03 0.04 0.05 0.04 0.03 0.03 0.03 0.03 0.04 0.03 0.02 0.03 0.03
0.00 0.00 0.00 0.00 0.00 0.00 0.00 0.00 0.00 0.00 0.00 0.00 0.00 0.00 0.00 0.00 0.00 0.00 0.00 0.00 0.00 0.00 0.00 0.00 0.01 0.01 0.01 0.01 0.01 0.02 0.02 0.02 0.04 0.04 0.04 0.03 0.03 0.03 0.03 0.03 0.02 0.02 0.02 0.02
0.00 0.00 0.00 0.00 0.00 0.00 0.00 0.00 0.00 0.00 0.00 0.00 0.00 0.00 0.00 0.00 0.00 0.00 0.00 0.00 0.00 0.00 0.00 0.00 0.00 0.00 0.01 0.01 0.01 0.01 0.02 0.03 0.04 0.04 0.03 0.02 0.02 0.02 0.02 0.02 0.02 0.01 0.02 0.02
0.00 0.00 0.00 0.00 0.00 0.00 0.00 0.01 0.00 0.00 0.01 0.01 0.00 0.00 0.00 0.00 0.00 0.00 0.00 0.00 0.00 0.00 0.00 0.00 0.00 0.00 0.00 0.01 0.01 0.01 0.02 0.04 0.05 0.04 0.04 0.03 0.03 0.02 0.02 0.01 0.01 0.01 0.02 0.02
0.00 0.00 0.00 0.00 0.01 0.00 0.00 0.00 0.00 0.01 0.01 0.01 0.00 0.00 0.00 0.01 0.01 0.01 0.01 0.00 0.00 0.00 0.00 0.00 0.00 0.00 0.01 0.01 0.01 0.01 0.02 0.03 0.03 0.03 0.03 0.03 0.03 0.03 0.02 0.01 0.01 0.02 0.02 0.02
0.00 0.00 0.00 0.00 0.00 0.00 0.01 0.00 0.00 0.01 0.02 0.01 0.01 0.01 0.01 0.01 0.01 0.01 0.01 0.00 0.00 0.00 0.00 0.00 0.00 0.01 0.01 0.01 0.01 0.01 0.02 0.02 0.03 0.04 0.03 0.02 0.02 0.02 0.02 0.02 0.01 0.02 0.03 0.03
0.00 0.00 0.00 0.00 0.01 0.01 0.01 0.00 0.00 0.01 0.01 0.00 0.00 0.00 0.00 0.00 0.01 0.01 0.01 0.00 0.00 0.00 0.00 0.00 0.00 0.01 0.01 0.01 0.01 0.01 0.01 0.01 0.02 0.03 0.03 0.02 0.01 0.01 0.01 0.02 0.02 0.02 0.02 0.03
0.00 0.00 0.01 0.01 0.01 0.01 0.01 0.01 0.00 0.01 0.00 0.00 0.00 0.00 0.00 0.00 0.01 0.01 0.01 0.00 0.00 0.00 0.00 0.00 0.00 0.00 0.01 0.02 0.02 0.02 0.01 0.01 0.02 0.02 0.02 0.01 0.01 0.01 0.01 0.01 0.02 0.02 0.02 0.02
0.00 0.00 0.01 0.01 0.01 0.01 0.01 0.01 0.00 0.01 0.01 0.00 0.00 0.00 0.00 0.00 0.01 0.01 0.01 0.00 0.00 0.00 0.00 0.00 0.00 0.00 0.01 0.02 0.03 0.02 0.02 0.02 0.01 0.02 0.02 0.01 0.01 0.00 0.00 0.01 0.01 0.01 0.02 0.01
0.00 0.01 0.01 0.01 0.01 0.01 0.01 0.00 0.00 0.00 0.00 0.00 0.00 0.01 0.01 0.01 0.01 0.01 0.01 0.01 0.01 0.00 0.00 0.00 0.00 0.01 0.01 0.02 0.03 0.02 0.01 0.01 0.02 0.03 0.02 0.01 0.01 0.00 0.00 0.00 0.00 0.01 0.01 0.02
0.00 0.00 0.01 0.01 0.01 0.01 0.01 0.00 0.00 0.00 0.00 0.00 0.00 0.00 0.01 0.01 0.00 0.01 0.01 0.01 0.01 0.00 0.00 0.00 0.00 0.01 0.02 0.03 0.03 0.02 0.01 0.01 0.01 0.02 0.02 0.01 0.00 0.00 0.00 0.00 0.00 0.00 0.00 0.01
MSLP
1011.30 1012.15 1012.84 1013.33 1013.64 1013.80 1013.84 1013.82 1013.76 1013.66 1013.53 1013.34 1013.06 1012.67 1012.17 1011.58 1010.92 1010.25 1009.61 1009.04 1008.58 1008.25 1008.05 1007.97 1008.01 1008.13 1008.34 1008.61 1008.94 1009.33 1009.76 1010.24 1010.73 1011.22 1011.69 1012.11 1012.47 1012.77 1013.02 1013.22 1013.41 1013.59 1013.79 1014.01
1011.63 1012.33 1012.86 1013.23 1013.47 1013.61 1013.72 1013.82 1013.93 1014.02 1014.06 1014.00 1013.81 1013.46 1012.95 1012.30 1011.57 1010.81 1010.09 1009.46 1008.96 1008.60 1008.39 1008.31 1008.32 1008.42 1008.59 1008.83 1009.12 1009.48 1009.91 1010.38 1010.88 1011.39 1011.87 1012.30 1012.66 1012.95 1013.18 1013.37 1013.54 1013.72 1013.92 1014.16
1011.81 1012.33 1012.70 1012.95 1013.13 1013.30 1013.51 1013.77 1014.06 1014.35 1014.57 1014.66 1014.56 1014.24 1013.71 1013.01 1012.20 1011.36 1010.58 1009.91 1009.38 1009.01 1008.80 1008.71 1008.71 1008.79 1008.93 1009.12 1009.38 1009.70 1010.09 1010.55 1011.04 1011.55 1012.04 1012.48 1012.84 1013.13 1013.35 1013.52 1013.68 1013.86 1014.07 1014.32
1011.87 1012.21 1012.43 1012.59 1012.75 1012.97 1013.30 1013.73 1014.23 1014.72 1015.11 1015.32 1015.29 1014.99 1014.43 1013.66 1012.78 1011.88 1011.04 1010.34 1009.80 1009.44 1009.24 1009.16 1009.16 1009.23 1009.33 1009.49 1009.69 1009.97 1010.32 1010.74 1011.21 1011.70 1012.19 1012.63 1013.00 1013.29 1013.51 1013.68 1013.84 1014.02 1014.23 1014.48
1011.89 1012.07 1012.16 1012.25 1012.42 1012.72 1013.18 1013.79 1014.48 1015.14 1015.68 1015.98 1015.99 1015.68 1015.08 1014.25 1013.30 1012.34 1011.46 1010.74 1010.21 1009.87 1009.69 1009.63 1009.65 1009.70 1009.78 1009.89 1010.05 1010.26 1010.55 1010.92 1011.36 1011.83 1012.30 1012.73 1013.11 1013.41 1013.64 1013.83 1014.00 1014.18 1014.39 1014.65
1011.94 1011.97 1011.97 1012.03 1012.22 1012.62 1013.22 1013.99 1014.83 1015.63 1016.27 1016.63 1016.64 1016.30 1015.64 1014.75 1013.74 1012.73 1011.83 1011.11 1010.60 1010.30 1010.16 1010.13 1010.16 1010.21 1010.27 1010.33 1010.42 1010.56 1010.79 1011.09 1011.47 1011.90 1012.35 1012.77 1013.15 1013.47 1013.72 1013.93 1014.12 1014.32 1014.54 1014.80
1012.02 1011.96 1011.90 1011.96 1012.21 1012.70 1013.41 1014.31 1015.27 1016.16 1016.84 1017.20 1017.20 1016.81 1016.09 1015.14 1014.09 1013.07 1012.17 1011.48 1011.00 1010.74 1010.64 1010.65 1010.69 1010.74 1010.76 1010.77 1010.79 1010.86 1011.00 1011.23 1011.54 1011.91 1012.32 1012.73 1013.12 1013.45 1013.72 1013.96 1014.18 1014.40 1014.64 1014.91
1012.14 1012.02 1011.95 1012.04 1012.35 1012.92 1013.73 1014.71 1015.72 1016.64 1017.32 1017.66 1017.60 1017.16 1016.40 1015.42 1014.36 1013.35 1012.49 1011.84 1011.43 1011.22 1011.16 1011.19 1011.24 1011.27 1011.25 1011.20 1011.15 1011.13 1011.18 1011.32 1011.55 1011.86 1012.23 1012.61 1012.99 1013.33 1013.63 1013.90 1014.16 1014.40 1014.67 1014.96
1012.27 1012.13 1012.09 1012.23 1012.60 1013.24 1014.10 1015.11 1016.12 1017.01 1017.64 1017.92 1017.81 1017.33 1016.55 1015.57 1014.55 1013.59 1012.80 1012.23 1011.88 1011.72 1011.71 1011.75 1011.79 1011.79 1011.73 1011.61 1011.48 1011.37 1011.33 1011.38 1011.52 1011.76 1012.07 1012.42 1012.78 1013.12 1013.44 1013.75 1014.03 1014.32 1014.61 1014.92
1012.36 1012.26 1012.27 1012.47 1012.90 1013.57 1014.44 1015.42 1016.38 1017.18 1017.73 1017.94 1017.78 1017.28 1016.51 1015.59 1014.65 1013.79 1013.10 1012.62 1012.35 1012.25 1012.26 1012.31 1012.33 1012.28 1012.17 1011.99 1011.78 1011.59 1011.46 1011.42 1011.48 1011.64 1011.88 1012.18 1012.51 1012.85 1013.18 1013.50 1013.82 1014.14 1014.47 1014.80
1012.40 1012.36 1012.45 1012.71 1013.17 1013.85 1014.68 1015.57 1016.42 1017.12 1017.56 1017.68 1017.48 1016.99 1016.29 1015.48 1014.66 1013.95 1013.39 1013.02 1012.83 1012.78 1012.80 1012.84 1012.82 1012.73 1012.56 1012.32 1012.05 1011.79 1011.59 1011.47 1011.46 1011.54 1011.71 1011.95 1012.23 1012.54 1012.87 1013.20 1013.54 1013.89 1014.25 1014.61
1012.41 1012.46 1012.61 1012.92 1013.40 1014.03 1014.77 1015.54 1016.25 1016.80 1017.12 1017.17 1016.95 1016.51 1015.90 1015.24 1014.59 1014.04 1013.64 1013.39 1013.28 1013.27 1013.30 1013.30 1013.25 1013.11 1012.88 1012.60 1012.28 1011.98 1011.73 1011.56 1011.48 1011.49 1011.59 1011.76 1011.98 1012.24 1012.54 1012.87 1013.22 1013.60 1013.98 1014.38
1012.43 1012.56 1012.77 1013.10 1013.56 1014.11 1014.73 1015.33 1015.86 1016.25 1016.44 1016.43 1016.21 1015.84 1015.37 1014.88 1014.43 1014.07 1013.82 1013.70 1013.66 1013.68 1013.70 1013.68 1013.58 1013.40 1013.14 1012.83 1012.50 1012.18 1011.91 1011.70 1011.57 1011.52 1011.55 1011.64 1011.78 1011.99 1012.24 1012.55 1012.89 1013.28 1013.68 1014.11
1012.53 1012.71 1012.96 1013.28 1013.67 1014.10 1014.55 1014.97 1015.30 1015.52 1015.59 1015.52 1015.33 1015.04 1014.72 1014.42 1014.17 1014.00 1013.91 1013.90 1013.93 1013.97 1013.98 1013.93 1013.80 1013.59 1013.32 1013.01 1012.69 1012.38 1012.12 1011.90 1011.74 1011.63 1011.58 1011.59 1011.65 1011.78 1011.97 1012.23 1012.56 1012.94 1013.37 1013.81
1012.74 1012.95 1013.18 1013.45 1013.73 1014.02 1014.28 1014.49 1014.62 1014.67 1014.62 1014.51 1014.34 1014.16 1014.00 1013.88 1013.82 1013.83 1013.89 1013.98 1014.07 1014.12 1014.12 1014.04 1013.89 1013.67 1013.41 1013.13 1012.85 1012.58 1012.34 1012.13 1011.95 1011.80 1011.68 1011.60 1011.57 1011.61 1011.73 1011.93 1012.22 1012.59 1013.02 1013.48
1013.08 1013.26 1013.45 1013.62 1013.77 1013.88 1013.93 1013.92 1013.86 1013.75 1013.60 1013.45 1013.32 1013.24 1013.22 1013.28 1013.40 1013.56 1013.75 1013.92 1014.06 1014.12 1014.11 1014.02 1013.86 1013.65 1013.42 1013.19 1012.96 1012.75 1012.55 1012.36 1012.17 1011.98 1011.80 1011.64 1011.51 1011.45 1011.48 1011.62 1011.87 1012.21 1012.63 1013.09
1013.51 1013.63 1013.72 1013.77 1013.76 1013.68 1013.52 1013.32 1013.07 1012.82 1012.59 1012.42 1012.33 1012.33 1012.44 1012.65 1012.92 1013.21 1013.50 1013.74 1013.91 1013.99 1013.97 1013.88 1013.73 1013.54 1013.36 1013.18 1013.01 1012.86 1012.71 1012.55 1012.35 1012.13 1011.89 1011.64 1011.42 1011.27 1011.22 1011.28 1011.47 1011.78 1012.18 1012.64
1013.95 1013.98 1013.96 1013.86 1013.68 1013.41 1013.08 1012.70 1012.30 1011.94 1011.65 1011.46 1011.41 1011.49 1011.71 1012.03 1012.41 1012.81 1013.17 1013.46 1013.66 1013.75 1013.74 1013.65 1013.52 1013.37 1013.23 1013.11 1013.01 1012.91 1012.80 1012.65 1012.46 1012.20 1011.90 1011.58 1011.28 1011.03 1010.89 1010.88 1011.02 1011.28 1011.66 1012.10
1014.33 1014.24 1014.08 1013.84 1013.51 1013.09 1012.60 1012.08 1011.58 1011.14 1010.81 1010.63 1010.61 1010.76 1011.06 1011.46 1011.93 1012.39 1012.81 1013.13 1013.35 1013.45 1013.45 1013.38 1013.27 1013.16 1013.06 1012.99 1012.94 1012.88 1012.80 1012.66 1012.45 1012.16 1011.80 1011.42 1011.04 1010.72 1010.51 1010.43 1010.51 1010.73 1011.07 1011.49
1014.55 1014.34 1014.06 1013.70 1013.24 1012.70 1012.11 1011.51 1010.95 1010.48 1010.14 1009.97 1009.99 1010.18 1010.53 1011.00 1011.51 1012.02 1012.46 1012.81 1013.04 1013.16 1013.17 1013.12 1013.04 1012.95 1012.89 1012.85 1012.82 1012.79 1012.71 1012.56 1012.32 1012.00 1011.59 1011.15 1010.72 1010.34 1010.06 1009.93 1009.95 1010.12 1010.42 1010.82
1014.57 1014.26 1013.88 1013.42 1012.88 1012.28 1011.64 1011.01 1010.44 1009.97 1009.65 1009.51 1009.56 1009.79 1010.17 1010.66 1011.20 1011.72 1012.17 1012.53 1012.77 1012.90 1012.93 1012.90 1012.84 1012.78 1012.73 1012.70 1012.68 1012.63 1012.54 1012.36 1012.09 1011.72 1011.28 1010.80 1010.31 1009.89 1009.57 1009.39 1009.36 1009.49 1009.76 1010.12
1014.40 1014.00 1013.55 1013.03 1012.46 1011.85 1011.22 1010.61 1010.07 1009.63 1009.35 1009.25 1009.33 1009.58 1009.98 1010.47 1011.01 1011.52 1011.98 1012.34 1012.59 1012.73 1012.77 1012.76 1012.71 1012.65 1012.61 1012.57 1012.52 1012.44 1012.31 1012.09 1011.77 1011.37 1010.89 1010.37 1009.85 1009.40 1009.04 1008.83 1008.77 1008.86 1009.08 1009.41
1014.05 1013.60 1013.11 1012.58 1012.02 1011.44 1010.86 1010.32 1009.84 1009.48 1009.25 1009.19 1009.30 1009.56 1009.95 1010.43 1010.95 1011.44 1011.89 1012.24 1012.49 1012.64 1012.70 1012.69 1012.65 1012.59 1012.53 1012.46 1012.37 1012.24 1012.04 1011.77 1011.40 1010.95 1010.44 1009.89 1009.35 1008.87 1008.50 1008.26 1008.17 1008.23 1008.42 1008.71
1013.58 1013.10 1012.61 1012.10 1011.59 1011.08 1010.59 1010.13 1009.75 1009.46 1009.30 1009.28 1009.41 1009.68 1010.05 1010.50 1010.99 1011.46 1011.88 1012.22 1012.47 1012.63 1012.70 1012.70 1012.66 1012.58 1012.49 1012.37 1012.22 1012.02 1011.76 1011.42 1011.00 1010.50 1009.95 1009.38 1008.82 1008.33 1007.94 1007.68 1007.56 1007.59 1007.75 1008.02
1013.04 1012.55 1012.08 1011.62 1011.18 1010.76 1010.37 1010.03 1009.74 1009.55 1009.45 1009.48 1009.62 1009.88 1010.23 1010.65 1011.10 1011.54 1011.93 1012.26 1012.51 1012.67 1012.75 1012.75 1012.70 1012.60 1012.47 1012.29 1012.08 1011.80 1011.47 1011.05 1010.57 1010.02 1009.43 1008.84 1008.26 1007.76 1007.35 1007.07 1006.93 1006.94 1007.07 1007.32
1012.47 1011.98 1011.54 1011.14 1010.79 1010.47 1010.19 1009.95 1009.77 1009.66 1009.63 1009.69 1009.85 1010.11 1010.44 1010.82 1011.23 1011.64 1012.01 1012.33 1012.57 1012.73 1012.80 1012.80 1012.74 1012.61 1012.44 1012.20 1011.92 1011.57 1011.15 1010.66 1010.12 1009.52 1008.89 1008.26 1007.67 1007.14 1006.72 1006.42 1006.26 1006.24 1006.35 1006.59
Thickness
5734 5721 5711 5715 5717 5716 5710 5704 5698 5703 5714 5708 5700 5699 5702 5706 5706 5704 5703 5703 5704 5705 5709 5710 5710 5710 5708 5707 5705 5704 5702 5700 5698 5695 5692 5689 5687 5686 5685 5685 5684 5683 5682 5681
5716 5711 5721 5724 5721 5715 5708 5700 5697 5702 5710 5704 5696 5695 5700 5702 5702 5702 5701 5700 5701 5702 5703 5705 5705 5705 5704 5702 5701 5700 5698 5697 5695 5693 5690 5687 5685 5683 5682 5681 5680 5679 5679 5678
5710 5715 5726 5721 5714 5708 5704 5699 5698 5697 5700 5699 5694 5687 5692 5698 5700 5701 5701 5699 5700 5700 5699 5700 5700 5700 5699 5699 5698 5697 5695 5693 5691 5690 5687 5684 5681 5678 5677 5676 5675 5675 5675 5674
5711 5719 5720 5714 5710 5707 5696 5708 5705 5699 5687 5677 5685 5668 5684 5689 5691 5695 5695 5694 5695 5697 5697 5696 5697 5696 5695 5695 5695 5694 5691 5689 5687 5685 5683 5679 5675 5672 5672 5672 5671 5671 5671 5670
5706 5714 5713 5708 5711 5710 5704 5709 5702 5694 5684 5673 5675 5667 5672 5683 5684 5688 5690 5691 5692 5693 5693 5693 5693 5693 5692 5692 5691 5689 5687 5685 5683 5681 5679 5676 5673 5671 5669 5669 5668 5667 5667 5667
5707 5716 5714 5713 5715 5713 5707 5698 5688 5676 5669 5659 5668 5662 5664 5674 5682 5686 5689 5689 5689 5690 5690 5689 5689 5689 5688 5687 5686 5684 5682 5680 5679 5677 5674 5672 5669 5667 5665 5664 5663 5663 5663 5663
5694 5704 5711 5714 5705 5703 5697 5677 5658 5655 5646 5650 5665 5660 5664 5683 5687 5687 5686 5686 5686 5686 5685 5683 5683 5682 5681 5681 5680 5679 5677 5675 5674 5672 5670 5668 5666 5664 5662 5661 5660 5659 5658 5658
5676 5677 5698 5705 5700 5691 5687 5677 5654 5645 5640 5645 5657 5654 5670 5685 5687 5687 5685 5683 5682 5681 5680 5679 5678 5677 5676 5675 5674 5673 5671 5670 5669 5667 5665 5664 5662 5661 5659 5658 5657 5656 5655 5656
5671 5673 5695 5701 5702 5695 5680 5671 5671 5652 5647 5640 5645 5656 5671 5681 5681 5681 5680 5678 5676 5675 5675 5674 5673 5672 5671 5670 5668 5667 5666 5665 5664 5662 5661 5659 5658 5657 5655 5654 5653 5652 5652 5652
5678 5670 5683 5690 5695 5690 5684 5671 5655 5647 5637 5632 5641 5648 5656 5669 5671 5672 5672 5671 5670 5670 5669 5669 5668 5667 5666 5665 5664 5662 5661 5659 5658 5657 5656 5655 5653 5653 5652 5650 5648 5648 5648 5648
5676 5664 5668 5675 5675 5671 5671 5664 5651 5639 5638 5629 5628 5643 5668 5668 5668 5667 5666 5665 5665 5664 5664 5663 5662 5662 5661 5660 5658 5656 5655 5653 5652 5651 5650 5649 5648 5648 5647 5646 5645 5644 5643 5643
5666 5654 5650 5661 5673 5675 5672 5663 5649 5639 5633 5627 5625 5639 5669 5667 5666 5664 5662 5661 5660 5659 5658 5657 5656 5654 5653 5653 5651 5650 5649 5647 5646 5646 5645 5644 5643 5642 5641 5640 5640 5640 5639 5639
5662 5649 5639 5646 5653 5662 5661 5659 5651 5640 5627 5618 5620 5640 5664 5662 5661 5659 5657 5655 5654 5653 5651 5650 5648 5647 5646 5645 5645 5644 5643 5641 5641 5640 5639 5638 5637 5636 5635 5635 5635 5635 5635 5634
5660 5644 5639 5637 5642 5648 5650 5652 5647 5638 5624 5619 5625 5640 5653 5654 5653 5653 5651 5649 5647 5645 5644 5643 5641 5640 5639 5638 5638 5637 5636 5636 5635 5634 5633 5632 5631 5631 5630 5630 5630 5630 5630 5629
5653 5640 5642 5643 5647 5646 5645 5647 5645 5639 5635 5628 5636 5638 5648 5650 5649 5648 5647 5644 5641 5639 5638 5637 5635 5634 5633 5632 5631 5631 5630 5630 5629 5628 5627 5626 5626 5625 5625 5624 5624 5624 5624 5623
5641 5636 5636 5637 5643 5640 5639 5643 5642 5640 5639 5636 5637 5639 5649 5648 5645 5642 5640 5638 5636 5634 5634 5632 5631 5629 5628 5627 5626 5626 5625 5624 5623 5622 5621 5621 5620 5620 5619 5618 5617 5617 5616 5616
5630 5628 5623 5619 5627 5632 5628 5640 5640 5639 5639 5636 5632 5638 5641 5639 5639 5638 5636 5633 5632 5631 5629 5628 5626 5625 5623 5622 5621 5619 5619 5618 5617 5616 5615 5615 5614 5614 5614 5613 5611 5610 5609 5609
5625 5618 5610 5609 5616 5613 5630 5642 5642 5637 5637 5636 5636 5637 5636 5636 5636 5634 5632 5629 5627 5626 5624 5623 5621 5620 5618 5617 5615 5614 5613 5612 5611 5610 5609 5609 5609 5608 5607 5606 5605 5604 5603 5602
5624 5615 5602 5597 5601 5607 5626 5636 5634 5630 5629 5633 5631 5630 5629 5628 5626 5624 5627 5626 5624 5622 5621 5619 5617 5615 5613 5612 5610 5608 5607 5606 5606 5605 5604 5604 5603 5602 5601 5599 5598 5598 5596 5595
5614 5610 5599 5591 5596 5599 5620 5634 5635 5628 5620 5629 5627 5624 5621 5619 5610 5615 5622 5620 5619 5617 5615 5613 5611 5609 5607 5605 5604 5602 5600 5599 5599 5599 5599 5598 5597 5596 5595 5593 5592 5591 5590 5589
5605 5597 5592 5587 5589 5600 5619 5626 5627 5610 5613 5625 5622 5619 5615 5611 5611 5614 5616 5614 5612 5610 5608 5606 5604 5601 5600 5598 5597 5595 5594 5593 5593 5593 5593 5592 5591 5590 5589 5587 5586 5585 5584 5582
5598 5591 5586 5582 5583 5596 5619 5617 5612 5612 5618 5618 5616 5614 5610 5608 5608 5608 5608 5606 5605 5602 5600 5599 5596 5594 5592 5591 5589 5588 5587 5587 5587 5586 5586 5585 5584 5583 5583 5580 5579 5578 5576 5574
5596 5597 5592 5592 5599 5608 5611 5612 5615 5613 5611 5611 5609 5608 5605 5601 5600 5600 5598 5596 5595 5593 5592 5590 5588 5586 5585 5583 5582 5580 5580 5580 5579 5578 5578 5577 5577 5576 5574 5573 5571 5570 5569 5567
5595 5595 5591 5590 5598 5603 5605 5606 5608 5607 5605 5604 5603 5601 5598 5594 5592 5590 5588 5586 5585 5584 5582 5581 5579 5578 5577 5576 5575 5574 5574 5572 5571 5570 5570 5569 5568 5567 5566 5565 5564 5562 5561 5560
5592 5588 5586 5587 5594 5597 5601 5601 5601 5600 5599 5597 5596 5594 5591 5588 5584 5582 5579 5577 5576 5575 5574 5572 5571 5570 5569 5568 5567 5567 5566 5565 5563 5562 5561 5561 5560 5559 5557 5556 5555 5555 5555 5555
5585 5585 5583 5588 5594 5591 5594 5597 5596 5593 5591 5590 5587 5585 5583 5581 5577 5574 5571 5569 5568 5566 5565 5564 5563 5562 5562 5561 5560 5559 5558 5557 5556 5555 5553 5551 5550 5550 5549 5547 5547 5547 5547 5548